Thedford, NE

7:43 AM CDT on May 27, 2018 (GMT -0500)
Thedford

Weather History for KTIF - September, 2013

Change the Weather History Date:

Monday, September 30, 2013

  Actual Average (KANW) Record (KANW)
Temperature  
Mean Temperature 72 °F -  
Max Temperature 88 °F 65 °F 88 °F (2013)
Min Temperature 57 °F 41 °F 32 °F (2003)
Cooling Degree Days 8    
Growing Degree Days 22 (Base 50)    
Moisture  
Dew Point 36 °F    
Average Humidity 31    
Maximum Humidity 60    
Minimum Humidity 11    
Precipitation  
Precipitation 0.00 in - - ()
Sea Level Pressure  
Sea Level Pressure 29.75 in    
Wind  
Wind Speed 13 mph (SW)    
Max Wind Speed 24 mph    
Max Gust Speed 32 mph    
Visibility 10 miles    
Events      
Averages and records for this station are not official NWS values.
T = Trace of Precipitation, MM = Missing Value Source: NWS Daily Summary

Daily Weather History Graph

Daily Weather History Graph

Search for Another Location

Airport or City:

Astronomy

Sep. 30, 2013 Rise Set
Actual Time 7:38 AM CDT 7:25 PM CDT
Civil Twilight 7:10 AM CDT 7:52 PM CDT
Nautical Twilight 6:38 AM CDT 8:25 PM CDT
Astronomical Twilight 6:05 AM CDT 8:57 PM CDT
Moon 3:13 AM CDT (9/30) 5:00 PM CDT (9/30)
Length of Visible Light 12h 42m
Length of Day
11h 46m
Waning Crescent, 19% of the Moon is Illuminated
Sep 30
Waning Crescent
Oct 4
New
Oct 11
First Quarter
Oct 18
Full
Oct 26
Last Quarter

Hourly Weather History & Observations

Time (CDT) Temp. Dew Point Humidity Pressure Visibility Wind Dir Wind Speed Gust Speed Precip Events Conditions
12:15 AM 63.9 °F 42.4 °F 46% 29.79 in 10.0 mi SSW 17.3 mph 21.9 mph N/A   Clear
12:35 AM 63.5 °F 42.8 °F 47% 29.80 in 10.0 mi SSW 15.0 mph 20.7 mph N/A   Clear
12:55 AM 62.8 °F 43.0 °F 48% 29.80 in 10.0 mi SSW 13.8 mph - N/A   Clear
1:15 AM 62.1 °F 43.3 °F 50% 29.80 in 10.0 mi SSW 11.5 mph 18.4 mph N/A   Clear
1:35 AM 61.2 °F 43.7 °F 53% 29.80 in 10.0 mi SSW 11.5 mph - N/A   Clear
1:55 AM 59.9 °F 43.9 °F 55% 29.80 in 10.0 mi SSW 11.5 mph - N/A   Clear
2:15 AM 59.0 °F 44.4 °F 58% 29.80 in 10.0 mi SSW 9.2 mph - N/A   Clear
2:35 AM 59.4 °F 44.6 °F 58% 29.80 in 10.0 mi SSW 11.5 mph - N/A   Clear
2:55 AM 59.4 °F 44.2 °F 57% 29.80 in 10.0 mi SW 11.5 mph - N/A   Clear
3:15 AM 59.5 °F 43.9 °F 56% 29.79 in 10.0 mi SW 8.1 mph - N/A   Clear
3:35 AM 57.4 °F 43.7 °F 60% 29.79 in 10.0 mi WSW 3.5 mph - N/A   Scattered Clouds
3:55 AM 58.6 °F 42.6 °F 55% 29.78 in 10.0 mi SW 6.9 mph - N/A   Clear
4:15 AM 57.9 °F 41.5 °F 54% 29.78 in 10.0 mi WSW 6.9 mph - N/A   Clear
4:35 AM 60.8 °F 39.4 °F 45% 29.78 in 10.0 mi SW 12.7 mph - N/A   Clear
4:55 AM 62.6 °F 36.9 °F 38% 29.78 in 10.0 mi WSW 8.1 mph - N/A   Clear
5:15 AM 59.9 °F 36.7 °F 42% 29.78 in 10.0 mi West 10.4 mph - N/A   Clear
5:35 AM 61.5 °F 35.4 °F 38% 29.77 in 10.0 mi WSW 11.5 mph - N/A   Clear
5:55 AM 60.8 °F 35.2 °F 38% 29.77 in 10.0 mi West 13.8 mph - N/A   Clear
6:15 AM 60.8 °F 34.9 °F 38% 29.77 in 10.0 mi West 15.0 mph - N/A   Clear
6:35 AM 60.4 °F 34.5 °F 38% 29.77 in 10.0 mi West 13.8 mph - N/A   Clear
6:55 AM 62.6 °F 32.9 °F 33% 29.77 in 10.0 mi West 12.7 mph 16.1 mph N/A   Clear
7:15 AM 59.9 °F 34.7 °F 39% 29.78 in 10.0 mi West 8.1 mph - N/A   Clear
7:35 AM 59.4 °F 34.5 °F 39% 29.77 in 10.0 mi West 10.4 mph - N/A   Clear
7:55 AM 60.3 °F 34.0 °F 37% 29.78 in 10.0 mi WSW 11.5 mph 16.1 mph N/A   Clear
8:15 AM 59.0 °F 35.2 °F 41% 29.78 in 10.0 mi West 5.8 mph - N/A   Clear
8:35 AM 59.2 °F 36.7 °F 43% 29.78 in 10.0 mi West 6.9 mph - N/A   Clear
8:55 AM 61.5 °F 36.9 °F 40% 29.77 in 10.0 mi WNW 6.9 mph - N/A   Clear
9:15 AM 65.3 °F 35.8 °F 34% 29.77 in 10.0 mi WNW 5.8 mph - N/A   Clear
9:35 AM 67.1 °F 37.8 °F 34% 29.77 in 10.0 mi NW 3.5 mph - N/A   Clear
9:55 AM 70.2 °F 36.1 °F 29% 29.77 in 10.0 mi West 9.2 mph - N/A   Clear
10:15 AM 72.5 °F 34.5 °F 25% 29.77 in 10.0 mi West 12.7 mph - N/A   Clear
10:35 AM 74.3 °F 34.3 °F 23% 29.77 in 10.0 mi WSW 10.4 mph - N/A   Clear
10:55 AM 75.9 °F 34.3 °F 22% 29.77 in 10.0 mi West 12.7 mph - N/A   Clear
11:15 AM 77.7 °F 34.7 °F 21% 29.77 in 10.0 mi West 10.4 mph 17.3 mph N/A   Clear
11:35 AM 80.8 °F 33.6 °F 18% 29.77 in 10.0 mi West 13.8 mph 18.4 mph N/A   Clear
11:55 AM 81.7 °F 31.1 °F 16% 29.77 in 10.0 mi West 19.6 mph 28.8 mph N/A   Clear
12:15 PM 82.8 °F 31.3 °F 16% 29.76 in 10.0 mi WNW 16.1 mph 23.0 mph N/A   Clear
12:35 PM 84.0 °F 29.7 °F 14% 29.75 in 10.0 mi West 18.4 mph 28.8 mph N/A   Clear
12:55 PM 85.1 °F 30.0 °F 14% 29.74 in 10.0 mi WNW 13.8 mph 27.6 mph N/A   Clear
1:15 PM 86.5 °F 28.6 °F 12% 29.74 in 10.0 mi West 17.3 mph 27.6 mph N/A   Clear
1:35 PM 86.4 °F 29.1 °F 13% 29.74 in 10.0 mi WSW 19.6 mph 25.3 mph N/A   Clear
1:55 PM 85.8 °F 30.2 °F 13% 29.73 in 10.0 mi WSW 17.3 mph 26.5 mph N/A   Clear
2:15 PM 86.2 °F 28.8 °F 13% 29.72 in 10.0 mi SW 18.4 mph 23.0 mph N/A   Clear
2:35 PM 86.7 °F 27.9 °F 12% 29.71 in 10.0 mi WSW 17.3 mph 23.0 mph N/A   Clear
2:55 PM 87.3 °F 27.9 °F 12% 29.71 in 10.0 mi WSW 18.4 mph 26.5 mph N/A   Clear
3:15 PM 87.8 °F 27.9 °F 11% 29.70 in 10.0 mi SW 24.2 mph 29.9 mph N/A   Clear
3:35 PM 87.8 °F 27.0 °F 11% 29.70 in 10.0 mi SSW 20.7 mph 28.8 mph N/A   Clear
3:55 PM 88.0 °F 29.1 °F 12% 29.69 in 10.0 mi SW 19.6 mph 32.2 mph N/A   Clear
4:15 PM 87.1 °F 31.3 °F 14% 29.68 in 10.0 mi SSW 19.6 mph 28.8 mph N/A   Clear
4:35 PM 87.6 °F 30.6 °F 13% 29.68 in 10.0 mi SSW 21.9 mph 27.6 mph N/A   Clear
4:55 PM 87.1 °F 28.6 °F 12% 29.68 in 10.0 mi SSW 19.6 mph 31.1 mph N/A   Clear
5:15 PM 86.9 °F 28.9 °F 12% 29.68 in 10.0 mi SSW 19.6 mph 32.2 mph N/A   Clear
5:35 PM 86.5 °F 28.6 °F 12% 29.68 in 10.0 mi SSW 19.6 mph 24.2 mph N/A   Clear
5:55 PM 86.0 °F 27.9 °F 12% 29.68 in 10.0 mi SSW 16.1 mph 28.8 mph N/A   Clear
6:15 PM 85.1 °F 27.9 °F 13% 29.68 in 10.0 mi SSW 17.3 mph 25.3 mph N/A   Clear
6:35 PM 84.0 °F 28.8 °F 13% 29.68 in 10.0 mi SSW 16.1 mph 23.0 mph N/A   Clear
6:55 PM 82.2 °F 31.8 °F 16% 29.67 in 10.0 mi SSW 11.5 mph - N/A   Clear
7:15 PM 80.1 °F 32.5 °F 18% 29.68 in 10.0 mi South 10.4 mph - N/A   Clear
7:35 PM 76.8 °F 34.3 °F 21% 29.68 in 10.0 mi South 8.1 mph - N/A   Clear
7:55 PM 73.9 °F 36.0 °F 25% 29.69 in 10.0 mi South 8.1 mph - N/A   Clear
8:15 PM 71.4 °F 36.7 °F 28% 29.69 in 10.0 mi South 6.9 mph - N/A   Clear
8:35 PM 72.3 °F 38.7 °F 29% 29.70 in 10.0 mi South 8.1 mph - N/A   Clear
8:55 PM 71.4 °F 39.2 °F 31% 29.71 in 10.0 mi South 8.1 mph - N/A   Clear
9:15 PM 70.7 °F 39.2 °F 32% 29.71 in 10.0 mi South 10.4 mph - N/A   Clear
9:35 PM 71.6 °F 39.4 °F 31% 29.71 in 10.0 mi South 12.7 mph - N/A   Clear
9:55 PM 70.9 °F 39.6 °F 32% 29.72 in 10.0 mi South 11.5 mph - N/A   Clear
10:15 PM 69.1 °F 40.6 °F 36% 29.73 in 10.0 mi SSW 11.5 mph - N/A   Clear
10:35 PM 68.7 °F 41.9 °F 38% 29.73 in 10.0 mi South 15.0 mph - N/A   Clear
10:55 PM 68.2 °F 42.3 °F 39% 29.73 in 10.0 mi South 13.8 mph - N/A   Clear
11:15 PM 68.2 °F 43.0 °F 40% 29.74 in 10.0 mi SSW 15.0 mph 19.6 mph N/A   Clear
11:35 PM 68.0 °F 43.7 °F 41% 29.75 in 10.0 mi SSW 13.8 mph 19.6 mph N/A   Clear
11:55 PM 67.5 °F 43.7 °F 42% 29.81 in 10.0 mi NW 12.7 mph 25.3 mph N/A   Clear